User: anonymous   Login
Location: Decatur(IL)
(39.8400°N, 88.9550°W)
Time: 20:38:47
(UTC-05:00)
Language:

Cosmos 2242 Rocket - Orbit

View from above orbital plane
View from above orbital plane
View from above satellite
View from above satellite

Ground track
Ground track

The orbit data is extracted from the following two-line orbital elements,

1 22627U 93024B   18172.88842709  .00000071  00000-0  65734-5 0  9990
2 22627  82.5226 116.8121 0022946 198.4819 161.5562 14.78119901356752
Epoch (UTC): 21 June 2018 21:19:20
Eccentricity: 0.0022946
inclination: 82.5226°
perigee height: 619 km
apogee height: 651 km
right ascension of ascending node: 116.8121°
argument of perigee: 198.4819°
revolutions per day: 14.78119901
mean anomaly at epoch: 161.5562°
orbit number at epoch: 35675

The dashed part of the orbit path shows where the satellite is in the earth's shadow,  

DLR